Stündliche Wetter Dabie

Heute, 22 Oktober, Donnerstag

Zeit Temperatur Niederschläge Wind Luftdruck Luftfeuchtigkeit
00:00 +8°C° 0 mm 2 m/S 737 mmHg 80%
01:00 +9°C° 0 mm 2 m/S 737 mmHg 79%
02:00 +9°C° 0 mm 2 m/S 737 mmHg 79%
03:00 +9°C° 0 mm 2 m/S 737 mmHg 79%
04:00 +9°C° 0 mm 2 m/S 737 mmHg 78%
05:00 +9°C° 0 mm 2 m/S 737 mmHg 78%
06:00 +9°C° 0 mm 2 m/S 737 mmHg 77%
07:00 +10°C° 0 mm 2 m/S 738 mmHg 76%
08:00 +13°C° 0 mm 2 m/S 738 mmHg 71%
09:00 +15°C° 0 mm 2 m/S 738 mmHg 66%
10:00 +18°C° 0 mm 1 m/S 738 mmHg 61%
11:00 +19°C° 0 mm 1 m/S 738 mmHg 60%
12:00 +20°C° 0 mm 1 m/S 738 mmHg 58%
13:00 +21°C° 0 mm 1 m/S 738 mmHg 57%
14:00 +20°C° 0 mm 1 m/S 738 mmHg 64%
15:00 +18°C° 0 mm 1 m/S 738 mmHg 70%
16:00 +16°C° 0 mm 1 m/S 737 mmHg 77%
17:00 +15°C° 0 mm 1 m/S 738 mmHg 80%
18:00 +14°C° 0 mm 1 m/S 738 mmHg 83%
19:00 +13°C° 0 mm 1 m/S 738 mmHg 86%
20:00 +13°C° 0 mm 1 m/S 738 mmHg 86%
21:00 +12°C° 0 mm 1 m/S 737 mmHg 87%
22:00 +12°C° 0 mm 1 m/S 737 mmHg 87%
23:00 +12°C° 0 mm 1 m/S 737 mmHg 87%

Morgen, 23 Oktober, Freitag

Zeit Temperatur Niederschläge Wind Luftdruck Luftfeuchtigkeit
00:00 +12°C° 0 mm 1 m/S 737 mmHg 86%
01:00 +11°C° 0 mm 1 m/S 737 mmHg 86%
02:00 +11°C° 0 mm 1 m/S 737 mmHg 86%
03:00 +11°C° 0 mm 1 m/S 737 mmHg 86%
04:00 +11°C° 0 mm 1 m/S 736 mmHg 86%
05:00 +11°C° 0 mm 1 m/S 736 mmHg 85%
06:00 +11°C° 0 mm 1 m/S 736 mmHg 85%
07:00 +11°C° 0 mm 1 m/S 736 mmHg 84%
08:00 +12°C° 0 mm 1 m/S 736 mmHg 78%
09:00 +14°C° 0 mm 1 m/S 736 mmHg 73%
10:00 +15°C° 0 mm 1 m/S 736 mmHg 67%
11:00 +16°C° 0 mm 1 m/S 735 mmHg 66%
12:00 +18°C° 0 mm 1 m/S 735 mmHg 65%
13:00 +19°C° 0 mm 1 m/S 735 mmHg 63%
14:00 +18°C° 0 mm 1 m/S 735 mmHg 68%
15:00 +16°C° 0 mm 1 m/S 734 mmHg 73%
16:00 +15°C° 0 mm 1 m/S 734 mmHg 78%
17:00 +13°C° 0 mm 0 m/S 734 mmHg 80%
18:00 +12°C° 0 mm 0 m/S 734 mmHg 82%
19:00 +12°C° 0 mm 0 m/S 734 mmHg 85%
20:00 +13°C° 0 mm 1 m/S 734 mmHg 85%
21:00 +12°C° 0 mm 1 m/S 734 mmHg 86%
22:00 +12°C° 0 mm 1 m/S 734 mmHg 87%
23:00 +12°C° 0 mm 1 m/S 733 mmHg 88%

übermorgen, 24 Oktober, Samstag

Zeit Temperatur Niederschläge Wind Luftdruck Luftfeuchtigkeit
00:00 +11°C° 0 mm 1 m/S 733 mmHg 90%
01:00 +11°C° 0 mm 1 m/S 733 mmHg 91%
02:00 +11°C° 0 mm 1 m/S 733 mmHg 91%
03:00 +11°C° 0 mm 1 m/S 733 mmHg 91%
04:00 +10°C° 0 mm 1 m/S 733 mmHg 91%
05:00 +10°C° 0.1 mm 2 m/S 733 mmHg 90%
06:00 +10°C° 0.1 mm 2 m/S 733 mmHg 89%
07:00 +10°C° 0.1 mm 2 m/S 733 mmHg 88%
08:00 +10°C° 0.4 mm 2 m/S 733 mmHg 89%
09:00 +12°C° 0.4 mm 2 m/S 734 mmHg 90%
10:00 +12°C° 0.4 mm 2 m/S 734 mmHg 91%
11:00 +12°C° 0.1 mm 3 m/S 734 mmHg 90%
12:00 +13°C° 0.1 mm 3 m/S 734 mmHg 89%
13:00 +13°C° 0.1 mm 4 m/S 735 mmHg 87%
14:00 +13°C° 0 mm 3 m/S 735 mmHg 88%
15:00 +13°C° 0 mm 3 m/S 735 mmHg 88%
16:00 +14°C° 0 mm 2 m/S 735 mmHg 89%
17:00 +13°C° 0 mm 2 m/S 736 mmHg 90%
18:00 +12°C° 0 mm 2 m/S 736 mmHg 91%
19:00 +11°C° 0 mm 1 m/S 737 mmHg 92%
20:00 +11°C° 0 mm 1 m/S 737 mmHg 92%
21:00 +11°C° 0 mm 1 m/S 737 mmHg 92%
22:00 +10°C° 0 mm 1 m/S 738 mmHg 92%
23:00 +10°C° 0 mm 1 m/S 738 mmHg 92%

, 25 Oktober, Sonntag

Zeit Temperatur Niederschläge Wind Luftdruck Luftfeuchtigkeit
00:00 +10°C° 0 mm 1 m/S 738 mmHg 92%
01:00 +10°C° 0 mm 1 m/S 737 mmHg 92%
02:00 +9°C° 0 mm 1 m/S 738 mmHg 91%
03:00 +9°C° 0 mm 1 m/S 738 mmHg 91%
04:00 +9°C° 0 mm 1 m/S 738 mmHg 91%
05:00 +9°C° 0 mm 1 m/S 738 mmHg 91%
06:00 +9°C° 0 mm 1 m/S 738 mmHg 91%
07:00 +9°C° 0 mm 1 m/S 738 mmHg 91%
08:00 +11°C° 0 mm 1 m/S 738 mmHg 84%
09:00 +13°C° 0 mm 1 m/S 738 mmHg 78%
10:00 +15°C° 0 mm 1 m/S 738 mmHg 71%
11:00 +16°C° 0 mm 1 m/S 737 mmHg 68%
12:00 +16°C° 0 mm 1 m/S 737 mmHg 64%
13:00 +18°C° 0 mm 1 m/S 737 mmHg 61%
14:00 +16°C° 0 mm 1 m/S 736 mmHg 66%
15:00 +15°C° 0 mm 1 m/S 736 mmHg 72%
16:00 +14°C° 0 mm 2 m/S 735 mmHg 77%
17:00 +13°C° 0 mm 2 m/S 735 mmHg 81%
18:00 +12°C° 0 mm 2 m/S 736 mmHg 84%
19:00 +10°C° 0 mm 2 m/S 736 mmHg 88%
20:00 +10°C° 0 mm 1 m/S 735 mmHg 88%
21:00 +10°C° 0 mm 1 m/S 735 mmHg 88%
22:00 +10°C° 0 mm 1 m/S 735 mmHg 88%
23:00 +9°C° 0 mm 1 m/S 735 mmHg 88%

25 Oktober, Sonntag

Zeit Temperatur Niederschläge Wind Luftdruck Luftfeuchtigkeit
00:00 +10°C° 0 mm 1 m/S 738 mmHg 92%
01:00 +10°C° 0 mm 1 m/S 737 mmHg 92%
02:00 +9°C° 0 mm 1 m/S 738 mmHg 91%
03:00 +9°C° 0 mm 1 m/S 738 mmHg 91%
04:00 +9°C° 0 mm 1 m/S 738 mmHg 91%
05:00 +9°C° 0 mm 1 m/S 738 mmHg 91%
06:00 +9°C° 0 mm 1 m/S 738 mmHg 91%
07:00 +9°C° 0 mm 1 m/S 738 mmHg 91%
08:00 +11°C° 0 mm 1 m/S 738 mmHg 84%
09:00 +13°C° 0 mm 1 m/S 738 mmHg 78%
10:00 +15°C° 0 mm 1 m/S 738 mmHg 71%
11:00 +16°C° 0 mm 1 m/S 737 mmHg 68%
12:00 +16°C° 0 mm 1 m/S 737 mmHg 64%
13:00 +18°C° 0 mm 1 m/S 737 mmHg 61%
14:00 +16°C° 0 mm 1 m/S 736 mmHg 66%
15:00 +15°C° 0 mm 1 m/S 736 mmHg 72%
16:00 +14°C° 0 mm 2 m/S 735 mmHg 77%
17:00 +13°C° 0 mm 2 m/S 735 mmHg 81%
18:00 +12°C° 0 mm 2 m/S 736 mmHg 84%
19:00 +10°C° 0 mm 2 m/S 736 mmHg 88%
20:00 +10°C° 0 mm 1 m/S 735 mmHg 88%
21:00 +10°C° 0 mm 1 m/S 735 mmHg 88%
22:00 +10°C° 0 mm 1 m/S 735 mmHg 88%
23:00 +9°C° 0 mm 1 m/S 735 mmHg 88%

26 Oktober, Montag

Zeit Temperatur Niederschläge Wind Luftdruck Luftfeuchtigkeit
00:00 +9°C° 0 mm 1 m/S 734 mmHg 87%
01:00 +9°C° 0 mm 1 m/S 734 mmHg 86%
02:00 +9°C° 0 mm 1 m/S 734 mmHg 86%
03:00 +9°C° 0 mm 1 m/S 733 mmHg 86%
04:00 +8°C° 0 mm 1 m/S 733 mmHg 86%
05:00 +9°C° 0 mm 1 m/S 733 mmHg 87%
06:00 +9°C° 0 mm 1 m/S 732 mmHg 87%
07:00 +9°C° 0 mm 1 m/S 732 mmHg 88%
08:00 +10°C° 0 mm 2 m/S 732 mmHg 82%
09:00 +13°C° 0 mm 2 m/S 732 mmHg 77%
10:00 +15°C° 0 mm 2 m/S 732 mmHg 72%
11:00 +14°C° 0 mm 3 m/S 731 mmHg 70%
12:00 +16°C° 0 mm 3 m/S 731 mmHg 67%
13:00 +17°C° 0 mm 4 m/S 731 mmHg 65%
14:00 +16°C° 0 mm 3 m/S 731 mmHg 69%
15:00 +14°C° 0 mm 3 m/S 730 mmHg 74%
16:00 +13°C° 0 mm 3 m/S 730 mmHg 79%
17:00 +12°C° 0 mm 3 m/S 730 mmHg 82%
18:00 +12°C° 0 mm 2 m/S 730 mmHg 85%
19:00 +10°C° 0 mm 2 m/S 730 mmHg 89%
20:00 +10°C° 0 mm 2 m/S 730 mmHg 89%
21:00 +10°C° 0 mm 2 m/S 730 mmHg 90%
22:00 +9°C° 0 mm 2 m/S 730 mmHg 91%
23:00 +9°C° 0 mm 2 m/S 730 mmHg 91%

27 Oktober, Dienstag

Zeit Temperatur Niederschläge Wind Luftdruck Luftfeuchtigkeit
00:00 +9°C° 0 mm 2 m/S 730 mmHg 91%
01:00 +9°C° 0 mm 2 m/S 730 mmHg 90%
02:00 +9°C° 0 mm 2 m/S 730 mmHg 90%
03:00 +9°C° 0 mm 2 m/S 730 mmHg 90%
04:00 +10°C° 0 mm 1 m/S 730 mmHg 90%
05:00 +10°C° 0 mm 1 m/S 731 mmHg 91%
06:00 +9°C° 0 mm 2 m/S 731 mmHg 91%
07:00 +9°C° 0 mm 2 m/S 731 mmHg 91%
08:00 +12°C° 0 mm 2 m/S 732 mmHg 84%
09:00 +14°C° 0 mm 2 m/S 732 mmHg 78%
10:00 +16°C° 0 mm 2 m/S 732 mmHg 72%
11:00 +17°C° 0 mm 2 m/S 732 mmHg 68%
12:00 +18°C° 0 mm 2 m/S 732 mmHg 64%
13:00 +19°C° 0 mm 2 m/S 733 mmHg 60%
14:00 +18°C° 0 mm 2 m/S 732 mmHg 66%
15:00 +16°C° 0 mm 1 m/S 732 mmHg 71%
16:00 +15°C° 0 mm 1 m/S 732 mmHg 77%
17:00 +14°C° 0 mm 1 m/S 732 mmHg 80%
18:00 +13°C° 0 mm 1 m/S 732 mmHg 83%
19:00 +12°C° 0 mm 1 m/S 732 mmHg 86%
20:00 +12°C° 0 mm 1 m/S 733 mmHg 86%
21:00 +11°C° 0 mm 1 m/S 733 mmHg 86%
22:00 +11°C° 0 mm 1 m/S 733 mmHg 86%
23:00 +11°C° 0 mm 1 m/S 733 mmHg 86%
Mehr zeigen

Wir brauchen deine Erlaubnis

Meteoprog und unser Service Anbieter werden persönliche Daten aufbewahren, so wie Cookies, Geräte Bezeichnung oder ähnliche Technologien von deinem Gerät und Prozess, so wie Persönliche Daten Inhalte und Werbungen, genauso wie social Media und den Verkehr zu analysieren.

  • Aufbewahrung und/oder Zugang zu deiner Geräte Informationen.

    Cookies, Geräte Bezeichnung oder andere Informationen, können aufbewahrt oder Zugang zu deinem Gerät erhalten, für den Grund, der oben angegeben wird.

  • Personalisierte Werbung und Inhalte, Messungen, Einblick in das Publikum und Produkt Entwicklung.

    Werbungen und Inhalte können personalisiert werden, basierend auf ein Profil. Mehr Daten können besser personalisierte Werbungen und Inhalte hinzufügen. Werbung und Inhalte können gezeigt und gemessen werden. Einblicke über das Publikum, welche die Werbung gesehen haben und den Inhalt, können abgeleitet werden. So wie Daten können genutzt werden, um es zu verbessern oder die Benutzer Erfahrung zu verbessern das System und die Software.

Wenn du “Ich stimme zu” klickst, erlaubst du uns, die Cookies zu benutzen die Geräte Bezeichnung, den Web oder ähnliche Technologien zu benutzen. Deine Settings, können in deinem Gerät bei deinem Browser geändert werden.

Für den bestimmten Zweck, berechtigten Interessen beruhen darauf, mehr als auf den Inhalt. Du kannst mehr darüber in unseren Privaten und Cookie Politik lesen.